CW9825 Weather Reports


time (UTC)temp
C
wind
direction
speed
KPH
gust
KPH
rain 1hr
cm
rain 24hr
cm
rain mn
cm
humidity
%
barometer
mb
20260504214010 8 328 20.9 38.6 0.00 0.00 0.00 48 1003.3
20260504213506 9 12 17.7 35.4 0.00 0.00 0.00 51 1003.4
20260504213009 8 319 17.7 46.7 0.00 0.00 0.00 50 1003.4
20260504212508 8 338 9.7 33.8 0.00 0.00 0.00 52 1003.4
20260504212004 8 299 16.1 37.0 0.00 0.00 0.00 53 1003.4
20260504211504 8 321 20.9 37.0 0.00 0.00 0.00 53 1003.4
20260504211004 8 339 19.3 33.8 0.00 0.00 0.00 52 1003.5
20260504210503 8 317 11.3 49.9 0.00 0.00 0.00 52 1003.3
20260504210004 8 306 24.1 49.9 0.00 0.00 0.00 51 1003.2
20260504205503 8 300 16.1 35.4 0.00 0.00 0.00 52 1003.3
20260504205005 8 288 22.5 37.0 0.00 0.00 0.00 52 1003.3
20260504204502 8 344 14.5 40.2 0.00 0.00 0.00 52 1003.3
20260504204002 8 279 17.7 40.2 0.00 0.00 0.00 51 1003.3
20260504203503 8 340 16.1 35.4 0.00 0.00 0.00 50 1003.3
20260504203005 8 355 16.1 33.8 0.00 0.00 0.00 49 1003.3
20260504202504 9 304 12.9 32.2 0.00 0.00 0.00 49 1003.3
20260504202002 8 355 11.3 30.6 0.00 0.00 0.00 49 1003.3
20260504201501 8 265 14.5 35.4 0.00 0.00 0.00 48 1003.2
20260504201003 8 5 19.3 37.0 0.00 0.00 0.00 48 1003.3
20260504200501 8 66 12.9 37.0 0.00 0.00 0.00 47 1003.1
20260504195600 8 325 12.9 33.8 0.00 0.00 0.00 48 1003.2
20260504195502 8 345 12.9 33.8 0.00 0.00 0.00 47 1003.1
20260504195101 8 267 8.0 33.8 0.00 0.00 0.00 47 1003.2
20260504194610 8 320 17.7 33.8 0.00 0.00 0.00 47 1003.2
20260504194100 8 318 16.1 29.0 0.00 0.00 0.00 50 1003.2
20260504193559 8 294 17.7 35.4 0.00 0.00 0.00 50 1003.3
20260504193059 8 310 20.9 38.6 0.00 0.00 0.00 50 1003.3
20260504192600 8 339 12.9 38.6 0.00 0.00 0.00 51 1003.3
20260504192058 8 288 14.5 32.2 0.00 0.00 0.00 51 1003.3
20260504191559 7 310 19.3 32.2 0.00 0.00 0.00 52 1003.3
20260504191057 7 295 14.5 33.8 0.00 0.00 0.00 53 1003.2
20260504190557 7 282 16.1 33.8 0.00 0.00 0.00 52 1003.3
20260504190156 7 256 16.1 33.8 0.00 0.00 0.00 53 1003.2
20260504185556 7 341 17.7 37.0 0.00 0.00 0.00 53 1003.3
20260504185055 7 321 22.5 53.1 0.00 0.00 0.00 54 1003.2
20260504184558 7 323 29.0 51.5 0.00 0.00 0.00 54 1003.0
20260504184058 7 323 19.3 40.2 0.00 0.00 0.00 55 1003.0
20260504183555 7 316 20.9 40.2 0.00 0.00 0.00 55 1003.0
20260504183054 7 283 22.5 32.2 0.00 0.00 0.00 53 1003.0
20260504182553 7 278 9.7 38.6 0.00 0.00 0.00 53 1002.8
20260504182052 7 350 22.5 38.6 0.00 0.00 0.00 54 1002.8
20260504181557 7 311 19.3 37.0 0.00 0.00 0.00 56 1002.7
20260504181052 7 277 14.5 35.4 0.00 0.00 0.00 57 1002.8
20260504180143 7 281 20.9 45.1 0.00 0.00 0.00 55 1002.6
20260504175551 7 298 24.1 49.9 0.00 0.00 0.00 57 1002.7
20260504175059 7 298 19.3 49.9 0.00 0.00 0.00 59 1002.7
20260504174551 7 324 30.6 48.3 0.00 0.00 0.00 58 1002.4
20260504174054 7 284 24.1 46.7 0.00 0.00 0.00 60 1002.4
20260504173549 7 331 24.1 45.1 0.00 0.00 0.00 59 1002.5
20260504173058 7 340 20.9 40.2 0.00 0.00 0.00 54 1002.3
20260504172547 7 323 19.3 40.2 0.00 0.00 0.00 53 1002.2
20260504172047 7 288 17.7 35.4 0.00 0.00 0.00 54 1002.1
20260504171547 7 331 14.5 27.4 0.00 0.00 0.00 57 1002.1
20260504171047 7 51 11.3 32.2 0.00 0.00 0.00 57 1002.2
20260504170550 7 265 9.7 37.0 0.00 0.00 0.00 57 1002.2
20260504151035 7 339 20.9 40.2 0.00 0.00 0.00 60 1000.5
20260504150535 7 328 16.1 35.4 0.00 0.00 0.00 60 1000.6
20260504150135 7 288 22.5 38.6 0.00 0.00 0.00 60 1000.5
20260504141031 7 280 19.3 41.8 0.00 0.00 0.00 69 1000.1
20260504140528 7 304 22.5 41.8 0.00 0.00 0.00 68 1000.1
20260504130519 6 264 16.1 33.8 0.00 0.00 0.00 71 999.3
20260504110557 8 257 16.1 46.7 0.00 0.00 0.00 65 997.0
20260504100542 10 267 4.8 17.7 0.00 0.00 0.00 69 995.7
20260504081530 10 325 12.9 30.6 0.00 0.00 0.00 66 995.4
20260504081033 10 347 12.9 33.8 0.00 0.00 0.00 65 995.4
20260504080528 10 331 20.9 38.6 0.00 0.00 0.00 65 995.6
20260504050551 17 216 17.7 40.2 0.00 0.00 0.00 42 992.4
20260504050117 17 200 17.7 33.8 0.00 0.00 0.00 42 992.5
20260504045548 17 168 14.5 35.4 0.00 0.00 0.00 42 992.7
20260504045048 17 177 17.7 37.0 0.00 0.00 0.00 42 992.8
20260504044548 17 193 12.9 37.0 0.00 0.00 0.00 42 992.8
20260504044047 17 230 20.9 37.0 0.00 0.00 0.00 42 992.9
20260504043546 17 213 14.5 37.0 0.00 0.00 0.00 42 993.0
20260504043046 17 198 16.1 32.2 0.00 0.00 0.00 42 993.1
20260504042544 17 207 17.7 33.8 0.00 0.00 0.00 42 993.2
20260504042044 17 178 24.1 33.8 0.00 0.00 0.00 42 993.2
20260504041546 17 214 19.3 30.6 0.00 0.00 0.00 42 993.3
20260504041043 17 250 19.3 35.4 0.00 0.00 0.00 41 993.6
20260504040542 17 203 19.3 37.0 0.00 0.00 0.00 41 993.8
20260504040042 17 213 17.7 33.8 0.00 0.00 0.00 41 993.9
20260504035541 17 188 22.5 37.0 0.00 0.00 0.00 41 994.1
20260504035040 17 204 14.5 37.0 0.00 0.00 0.00 41 994.2
20260504034548 17 224 16.1 33.8 0.00 0.00 0.00 41 994.3
20260504034040 17 215 16.1 29.0 0.00 0.00 0.00 40 994.6
20260504033638 17 195 14.5 24.1 0.00 0.00 0.00 40 994.6
20260504033036 17 190 14.5 32.2 0.00 0.00 0.00 40 994.7
20260504032536 17 232 16.1 32.2 0.00 0.00 0.00 40 994.9
20260504032038 17 205 16.1 29.0 0.00 0.00 0.00 40 995.0
20260504031545 17 210 17.7 29.0 0.00 0.00 0.00 40 995.1
20260504031033 17 217 14.5 32.2 0.00 0.00 0.00 40 995.2
20260504030532 17 194 12.9 25.7 0.00 0.00 0.00 40 995.3
20260504030039 17 193 16.1 32.2 0.00 0.00 0.00 40 995.4
20260504025535 17 194 14.5 32.2 0.00 0.00 0.00 40 995.5
20260504025032 17 184 16.1 35.4 0.00 0.00 0.00 40 995.6
20260504024530 17 219 16.1 35.4 0.00 0.00 0.00 39 995.6
20260504024031 18 213 14.5 32.2 0.00 0.00 0.00 39 995.7
20260504023529 18 198 16.1 30.6 0.00 0.00 0.00 39 995.9
20260504023028 18 198 16.1 25.7 0.00 0.00 0.00 38 995.9
20260504022529 18 169 14.5 29.0 0.00 0.00 0.00 38 996.0
20260504022027 18 198 11.3 30.6 0.00 0.00 0.00 38 996.0
20260504021526 18 194 16.1 29.0 0.00 0.00 0.00 37 996.1
20260504021025 18 209 16.1 25.7 0.00 0.00 0.00 37 996.2
20260504020525 18 202 16.1 32.2 0.00 0.00 0.00 36 996.2
20260504020028 19 192 19.3 32.2 0.00 0.00 0.00 36 996.3
20260504015525 19 176 16.1 29.0 0.00 0.00 0.00 35 996.4
20260504015024 19 200 16.1 29.0 0.00 0.00 0.00 35 996.5
20260504014524 19 213 12.9 25.7 0.00 0.00 0.00 34 996.6
20260504014022 20 200 12.9 24.1 0.00 0.00 0.00 34 996.8
20260504013521 20 213 16.1 24.1 0.00 0.00 0.00 34 996.9
20260504013020 20 213 12.9 25.7 0.00 0.00 0.00 33 997.0
20260504012522 20 208 14.5 25.7 0.00 0.00 0.00 33 997.2
20260504012019 20 154 12.9 19.3 0.00 0.00 0.00 33 997.3
20260504011518 20 242 11.3 25.7 0.00 0.00 0.00 32 997.4
20260504011016 21 225 9.7 25.7 0.00 0.00 0.00 32 997.5
20260504010516 21 188 9.7 19.3 0.00 0.00 0.00 32 997.5
20260504010015 21 144 8.0 22.5 0.00 0.00 0.00 31 997.8
20260504005514 21 190 6.4 22.5 0.00 0.00 0.00 31 997.9
20260504005014 21 182 8.0 16.1 0.00 0.00 0.00 30 998.0
20260504004514 21 238 4.8 16.1 0.00 0.00 0.00 30 998.1
20260504004015 21 237 1.6 22.5 0.00 0.00 0.00 30 998.2
20260504003511 21 137 6.4 22.5 0.00 0.00 0.00 30 998.4
20260504003011 21 168 4.8 17.7 0.00 0.00 0.00 29 998.5
20260504002509 21 225 6.4 17.7 0.00 0.00 0.00 29 998.6
20260504002009 21 227 9.7 19.3 0.00 0.00 0.00 29 998.7
20260504001510 22 271 4.8 25.7 0.00 0.00 0.00 29 998.8
20260504001007 22 228 12.9 25.7 0.00 0.00 0.00 29 998.8
20260504000510 22 259 8.0 17.7 0.00 0.00 0.00 29 999.0
20260504000007 22 63 4.8 24.1 0.00 0.00 0.00 29 999.0
20260503235505 22 279 9.7 22.5 0.00 0.00 0.00 29 999.2
20260503235005 22 260 8.0 22.5 0.00 0.00 0.00 29 999.3
20260503234508 22 167 8.0 22.5 0.00 0.00 0.00 29 999.3
20260503234004 22 242 11.3 22.5 0.00 0.00 0.00 29 999.5
20260503233503 22 243 11.3 22.5 0.00 0.00 0.00 29 999.6
20260503233002 22 214 8.0 32.2 0.00 0.00 0.00 29 999.7
20260503232501 22 279 12.9 32.2 0.00 0.00 0.00 29 999.7
20260503232101 22 202 12.9 30.6 0.00 0.00 0.00 29 999.8
20260503231600 22 225 11.3 25.7 0.00 0.00 0.00 29 999.9
20260503231100 22 302 9.7 29.0 0.00 0.00 0.00 29 999.9
20260503230559 22 257 12.9 27.4 0.00 0.00 0.00 29 1000.1
20260503225557 22 262 11.3 33.8 0.00 0.00 0.00 29 1000.3
20260503225059 22 328 14.5 33.8 0.00 0.00 0.00 28 1000.4
20260503224556 22 248 9.7 30.6 0.00 0.00 0.00 29 1000.5
20260503224055 22 296 11.3 29.0 0.00 0.00 0.00 28 1000.4
20260503223555 22 289 11.3 27.4 0.00 0.00 0.00 29 1000.5
20260503223054 22 237 9.7 27.4 0.00 0.00 0.00 28 1000.6
20260503222552 22 297 14.5 30.6 0.00 0.00 0.00 28 1000.6
20260503222051 22 283 14.5 40.2 0.00 0.00 0.00 29 1000.6
20260503221551 22 258 11.3 40.2 0.00 0.00 0.00 29 1000.8
20260503221050 22 273 6.4 25.7 0.00 0.00 0.00 30 1000.9
20260503220549 22 208 9.7 25.7 0.00 0.00 0.00 30 1001.2
20260503220048 22 259 9.7 30.6 0.00 0.00 0.00 30 1001.2
20260503215547 22 59 9.7 30.6 0.00 0.00 0.00 30 1001.4
20260503215048 22 245 9.7 30.6 0.00 0.00 0.00 30 1001.6
20260503214554 22 196 11.3 30.6 0.00 0.00 0.00 30 1001.6